[[{"header":{"parameterUnit":"m.s-1","parameterCategory":1,"la1":30.2991,"la2":30.254,"lo1":-89.0895,"lo2":-89.0444,"dy":0.0017,"dx":0.0017,"nx":28,"ny":28,"refTime":"2024-05-21T03:00:00:Z","depth":0,"parameterNumber":2,"parameterNumberName":"U-component_of_WINDS"},"data":[0,0,0,0,0,0,0,0,0,0,0,0,0,0,0,0,0,0,0,0,0,0,0,0,0,0,0,0,0,0,0,0,0,0,0,0,0,0,0,0,0,0,0,0,0,0,0,0,0,0,0,0,0,0,0,0,0,0,-3.337,-3.337,0,-3.3397,-3.3397,-3.3398,-3.3371,-3.337,-3.3369,-3.3368,-3.3395,-3.3397,-3.3399,0,0,0,0,0,0,0,0,0,0,0,0,0,-3.3297,-3.3299,-3.337,-3.337,-3.3371,-3.3397,-3.3397,-3.3398,-3.3371,-3.337,-3.3368,-3.3367,-3.3395,-3.3397,-3.3399,0,0,0,0,0,0,0,0,0,0,0,0,0,-3.3327,-3.3299,-3.337,-3.336,-3.336,-3.3397,-3.3397,-3.3398,-3.3371,-3.337,-3.3368,-3.3366,-3.3394,-3.3397,-3.3399,-3.3447,0,0,-3.3407,-3.3408,0,0,0,0,0,0,0,0,-3.3325,-3.333,-3.3361,-3.3361,-3.336,-3.3379,-3.3382,-3.3414,-3.3372,-3.3367,-3.3368,-3.3366,-3.3391,-3.3394,-3.3403,-3.3448,-3.345,-3.3407,-3.3409,-3.341,-3.3411,0,0,0,0,0,0,0,-3.3323,-3.3328,-3.3381,-3.3362,-3.3361,-3.3356,-3.3358,-3.3388,-3.3388,-3.3367,-3.3365,-3.3369,-3.3391,-3.34,-3.3403,-3.345,-3.3407,-3.341,-3.3411,-3.3412,-3.3539,-3.354,0,0,0,0,0,0,-3.3322,-3.3327,-3.338,-3.3381,-3.3339,-3.3358,-3.3361,-3.3375,-3.3387,-3.3388,-3.337,-3.3367,-3.3396,-3.34,-3.3404,-3.3461,-3.341,-3.3413,-3.3414,-3.3537,-3.3539,-3.3541,0,0,0,0,0,0,-3.3321,-3.3327,-3.3379,-3.3354,-3.336,-3.3361,-3.3377,-3.3376,-3.3385,-3.339,-3.3389,-3.338,-3.3395,-3.34,-3.3437,-3.3461,-3.3414,-3.3416,-3.3535,-3.3538,-3.354,-3.3575,0,0,0,0,0,0,-3.3319,-3.3327,-3.3344,-3.3354,-3.3361,-3.341,-3.3378,-3.3378,-3.339,-3.3386,-3.3398,-3.3399,-3.3394,-3.3433,-3.344,-3.3464,-3.3418,-3.3533,-3.3536,-3.3539,-3.3571,-3.3578,-3.3584,0,0,0,0,0,-3.3316,-3.3352,-3.3345,-3.3351,-3.3383,-3.3412,-3.3416,-3.341,-3.3392,-3.341,-3.3413,-3.3398,-3.3459,-3.3437,-3.3444,-3.347,-3.3531,-3.3535,-3.3539,-3.3568,-3.3577,-3.3584,0,0,0,0,0,0,-3.3344,-3.3353,-3.3345,-3.3385,-3.3398,-3.3407,-3.3429,-3.3419,-3.3437,-3.3433,-3.3426,-3.3429,-3.3467,-3.3473,-3.3449,-3.3518,-3.3492,-3.3497,-3.3512,-3.352,-3.3526,-3.3523,-3.342,0,0,0,0,0,-3.3355,-3.3377,-3.3385,-3.342,-3.3427,-3.3427,-3.3439,-3.3434,-3.3447,-3.3452,-3.3458,-3.3471,-3.3493,-3.3507,-3.3528,-3.3574,-3.3576,-3.3595,-3.3601,-3.3607,-3.361,-3.3636,-3.3644,-3.3554,-3.3554,-3.3554,0,0,-3.3377,-3.3385,-3.3399,-3.3425,-3.3434,-3.3458,-3.3431,-3.3457,-3.3475,-3.3456,-3.349,-3.3496,-3.3511,-3.3552,-3.3571,-3.3558,-3.3637,-3.3612,-3.3616,-3.3617,-3.3641,-3.3649,-3.3657,-3.3557,-3.3557,-3.3556,0,0,-3.3429,-3.3438,-3.3468,-3.3479,-3.3493,-3.3494,-3.3502,-3.3513,-3.3516,-3.3551,-3.3538,-3.356,-3.3598,-3.3609,-3.362,-3.3681,-3.3668,-3.3689,-3.372,-3.3745,-3.3752,-3.3758,-3.3779,-3.3787,-3.3693,-3.3693,-3.3693,0,-3.3454,-3.3489,-3.3485,-3.3512,-3.3524,-3.351,-3.3541,-3.3552,-3.3573,-3.3582,-3.3568,-3.3617,-3.3625,-3.3669,-3.3685,-3.3695,-3.3703,-3.3685,-3.3752,-3.3758,-3.3764,-3.3783,-3.3791,-3.3695,-3.3695,-3.3695,-3.3695,0,-3.3519,-3.3544,-3.3567,-3.3588,-3.3603,-3.3633,-3.3634,-3.365,-3.3646,-3.3649,-3.3686,-3.3697,-3.3719,-3.3731,-3.3726,-3.3775,-3.3767,-3.3753,-3.3726,-3.3774,-3.3793,-3.38,-3.3699,-3.3698,-3.3697,-3.3697,0,0,-3.3584,-3.3606,-3.3614,-3.3624,-3.3641,-3.366,-3.3691,-3.3714,-3.3728,-3.3744,-3.3769,-3.3804,-3.3792,-3.3804,-3.3801,-3.3823,-3.3871,-3.3807,-3.3807,-3.3816,-3.3926,-3.3934,-3.3943,-3.3865,-3.3866,-3.3867,-3.3924,0,-3.3636,-3.3686,-3.3685,-3.3733,-3.3756,-3.3745,-3.3772,-3.3786,-3.3791,-3.3812,-3.3818,-3.3842,-3.3825,-3.3832,-3.3854,-3.386,-3.3892,-3.3857,-3.3887,-3.3888,-3.388,-3.3952,-3.3961,-3.4013,-3.3931,-3.3932,-3.3933,0,-3.37,-3.372,-3.3769,-3.3785,-3.3795,-3.3818,-3.3841,-3.3861,-3.3879,-3.3881,-3.3897,-3.3891,-3.3923,-3.3899,-3.3943,-3.3919,-3.3932,-3.3938,-3.394,-3.3939,-3.3911,-3.3952,-3.403,-3.4037,-3.3945,-3.3944,-3.3943,0,-3.3741,-3.378,-3.3815,-3.3824,-3.3844,-3.3861,-3.387,-3.3886,-3.39,-3.3921,-3.393,-3.3954,-3.3967,-3.3986,-3.3988,-3.397,-3.4033,-3.4008,-3.4035,-3.4035,-3.4044,-3.4043,-3.4123,-3.4058,-3.4058,-3.4058,-3.4058,0,-3.3796,-3.3826,-3.3833,-3.3854,-3.3889,-3.389,-3.3924,-3.3932,-3.3947,-3.397,-3.3964,-3.3986,-3.3989,-3.4013,-3.4015,-3.4051,-3.4057,-3.406,-3.4059,-3.4059,-3.4058,-3.4064,-3.406,-3.406,-3.406,-3.4059,-3.4059,0,-3.3845,-3.3851,-3.3888,-3.3905,-3.391,-3.3935,-3.395,-3.3971,-3.3977,-3.4007,-3.4014,-3.4024,-3.4051,-3.4057,-3.4089,-3.4091,-3.4133,-3.4131,-3.4127,-3.4126,-3.4151,-3.4148,-3.4235,-3.4246,-3.4177,-3.4177,-3.4178,0,-3.3878,-3.3901,-3.3922,-3.3937,-3.3947,-3.3972,-3.3987,-3.3991,-3.4007,-3.4031,-3.4049,-3.4076,-3.4098,-3.4143,-3.4153,-3.4179,-3.4175,-3.4204,-3.4178,-3.4177,-3.4173,-3.4171,-3.4173,-3.4208,-3.4209,-3.4209,-3.421,0,-3.3936,-3.3938,-3.396,-3.3985,-3.4004,-3.4023,-3.4041,-3.4055,-3.4061,-3.408,-3.4108,-3.4126,-3.416,-3.4187,-3.4214,-3.4224,-3.4218,-3.4219,-3.4226,-3.4223,-3.4219,-3.422,-3.4137,-3.4215,-3.4215,-3.4214,-3.4214,-3.4214,-3.3976,-3.3997,-3.4015,-3.404,-3.4055,-3.4073,-3.4094,-3.4104,-3.4128,-3.4155,-3.4157,-3.4188,-3.4208,-3.4243,-3.4256,-3.4281,-3.4271,-3.4282,-3.4284,-3.4286,-3.4287,-3.4218,-3.4286,-3.4286,-3.4286,-3.4285,-3.4285,0,-3.4032,-3.4044,-3.4068,-3.4094,-3.4115,-3.411,-3.4131,-3.4149,-3.4176,-3.4195,-3.4217,-3.4251,-3.4279,-3.4293,-3.432,-3.4338,-3.4336,-3.4345,-3.4342,-3.4344,-3.4295,-3.4285,-3.4346,-3.4346,-3.4346,-3.4346,-3.4346,-3.4346,-3.4063,-3.4098,-3.4103,-3.4146,-3.4158,-3.4188,-3.4201,-3.4218,-3.4233,-3.4271,-3.4294,-3.4304,-3.4321,-3.4351,-3.4376,-3.438,-3.4389,-3.4399,-3.4401,-3.4354,-3.4348,-3.4342,-3.4332,-3.4402,-3.4402,-3.4448,-3.4449,-3.4449]},{"header":{"parameterUnit":"m.s-1","parameterCategory":1,"la1":30.2991,"la2":30.254,"lo1":-89.0895,"lo2":-89.0444,"dy":0.0017,"dx":0.0017,"nx":28,"ny":28,"refTime":"2024-05-21T03:00:00:Z","depth":0,"parameterNumber":3,"parameterNumberName":"V-component_of_WINDS"},"data":[0,0,0,0,0,0,0,0,0,0,0,0,0,0,0,0,0,0,0,0,0,0,0,0,0,0,0,0,0,0,0,0,0,0,0,0,0,0,0,0,0,0,0,0,0,0,0,0,0,0,0,0,0,0,0,0,0,0,3.2416,3.2417,0,3.2509,3.251,3.2511,3.2621,3.2623,3.2625,3.2626,3.2717,3.2718,3.2719,0,0,0,0,0,0,0,0,0,0,0,0,0,3.233,3.2331,3.2416,3.2417,3.2418,3.2509,3.251,3.2511,3.2621,3.2623,3.2625,3.2627,3.2717,3.2718,3.2719,0,0,0,0,0,0,0,0,0,0,0,0,0,3.2389,3.2331,3.2415,3.2484,3.2491,3.2509,3.251,3.2512,3.2621,3.2623,3.2626,3.2628,3.2717,3.2718,3.2719,3.2676,0,0,3.2723,3.2724,0,0,0,0,0,0,0,0,3.2386,3.2392,3.2473,3.2479,3.2487,3.2556,3.2514,3.2567,3.262,3.2571,3.2627,3.2629,3.2661,3.2667,3.2679,3.268,3.2684,3.2723,3.2724,3.2725,3.2725,0,0,0,0,0,0,0,3.2381,3.2389,3.2453,3.2474,3.2482,3.2509,3.252,3.2524,3.2601,3.2576,3.2584,3.2594,3.2666,3.2678,3.2682,3.2686,3.2723,3.2724,3.2725,3.2726,3.2658,3.2656,0,0,0,0,0,0,3.2367,3.2385,3.245,3.2455,3.2442,3.2508,3.2521,3.2531,3.2601,3.2614,3.2591,3.2599,3.2674,3.2681,3.2686,3.2641,3.2725,3.2726,3.2726,3.2661,3.2658,3.2655,0,0,0,0,0,0,3.2365,3.2372,3.2446,3.2422,3.2434,3.2507,3.2518,3.2532,3.2544,3.2613,3.2627,3.259,3.2677,3.2684,3.2679,3.2646,3.2726,3.2727,3.2664,3.266,3.2656,3.255,0,0,0,0,0,0,3.2362,3.2371,3.2355,3.2421,3.2435,3.2437,3.2516,3.2532,3.2546,3.2557,3.2615,3.2627,3.2679,3.2676,3.268,3.2649,3.2728,3.2667,3.2662,3.2657,3.2557,3.2543,3.2532,0,0,0,0,0,3.2359,3.232,3.2354,3.2361,3.2417,3.2435,3.2443,3.2505,3.2543,3.2528,3.2573,3.2625,3.2649,3.2675,3.268,3.2649,3.2669,3.2663,3.2658,3.2563,3.2546,3.2532,0,0,0,0,0,0,3.2247,3.233,3.2368,3.235,3.2385,3.2454,3.2437,3.2485,3.2508,3.2516,3.2591,3.2603,3.2589,3.2618,3.2645,3.2612,3.2667,3.2662,3.2593,3.2577,3.2565,3.2558,3.2729,0,0,0,0,0,3.222,3.2229,3.2301,3.2278,3.2294,3.2362,3.2372,3.2417,3.2456,3.247,3.2515,3.2549,3.2564,3.2573,3.259,3.2562,3.2577,3.2544,3.2531,3.252,3.2515,3.2503,3.249,3.2636,3.2636,3.2636,0,0,3.2165,3.2212,3.2212,3.2257,3.2289,3.2296,3.2373,3.2377,3.2383,3.247,3.2469,3.2502,3.2545,3.2529,3.2524,3.2553,3.2478,3.2513,3.2504,3.2504,3.2496,3.2482,3.247,3.2632,3.2633,3.2633,0,0,3.2068,3.2104,3.209,3.2121,3.217,3.2216,3.2212,3.2274,3.2301,3.2301,3.2367,3.2375,3.2399,3.2428,3.2446,3.2362,3.2411,3.2366,3.2299,3.2287,3.2276,3.2266,3.2236,3.2225,3.236,3.236,3.236,0,3.1992,3.2006,3.2076,3.2076,3.2094,3.2176,3.2162,3.2189,3.224,3.225,3.2283,3.2317,3.2352,3.2344,3.2324,3.2335,3.2334,3.2359,3.2272,3.2263,3.2254,3.2227,3.2216,3.2354,3.2355,3.2355,3.2356,0,3.1912,3.192,3.1903,3.1953,3.1969,3.1962,3.203,3.2038,3.2082,3.2124,3.2124,3.2169,3.2198,3.2199,3.2241,3.2198,3.2215,3.2258,3.2315,3.2234,3.221,3.22,3.2346,3.2348,3.235,3.2351,0,0,3.1745,3.1835,3.1828,3.1852,3.1913,3.1921,3.1918,3.1948,3.1954,3.1987,3.1986,3.2006,3.2048,3.2068,3.2115,3.2104,3.2036,3.215,3.2152,3.2127,3.1992,3.1958,3.1945,3.207,3.2068,3.2067,3.1988,0,3.1659,3.166,3.1724,3.1707,3.1716,3.1796,3.1793,3.183,3.187,3.1883,3.1927,3.1941,3.1994,3.2007,3.2001,3.2046,3.201,3.2052,3.2069,3.2069,3.2056,3.1933,3.1897,3.1821,3.1979,3.1978,3.1977,0,3.1559,3.1588,3.1573,3.1637,3.1643,3.1639,3.1674,3.1686,3.1729,3.1759,3.1782,3.1836,3.1837,3.1892,3.1895,3.1922,3.1933,3.1956,3.1955,3.1959,3.2017,3.1933,3.1798,3.1787,3.1962,3.1964,3.1965,0,3.1439,3.1475,3.1472,3.149,3.1563,3.1559,3.159,3.1636,3.1651,3.1681,3.1691,3.1719,3.1735,3.1755,3.1815,3.1849,3.1811,3.187,3.1836,3.1834,3.1824,3.1824,3.1689,3.183,3.1831,3.1831,3.1831,0,3.1337,3.1324,3.1419,3.1416,3.1405,3.1478,3.1465,3.1503,3.1543,3.1549,3.1619,3.1623,3.1702,3.1715,3.1761,3.1757,3.1763,3.1787,3.18,3.1781,3.1778,3.1789,3.1796,3.1828,3.1829,3.1829,3.183,0,3.1201,3.1264,3.1266,3.1336,3.1354,3.1342,3.1402,3.1403,3.1448,3.1455,3.146,3.1531,3.155,3.1612,3.1645,3.1677,3.1658,3.1682,3.1644,3.1652,3.1614,3.1617,3.1482,3.1468,3.1617,3.1616,3.1615,0,3.1132,3.1125,3.1195,3.1205,3.1233,3.1248,3.1264,3.1336,3.135,3.1401,3.1395,3.142,3.1443,3.1469,3.1523,3.1549,3.1575,3.1526,3.1579,3.1561,3.1574,3.1574,3.1574,3.1513,3.1511,3.151,3.1509,0,3.1002,3.1035,3.1056,3.1089,3.1108,3.1136,3.1169,3.1173,3.1253,3.1265,3.1287,3.1305,3.1341,3.1365,3.14,3.1431,3.1483,3.1492,3.1485,3.1466,3.1444,3.1456,3.1612,3.1494,3.1496,3.1497,3.1497,3.1498,3.0899,3.0897,3.0946,3.0969,3.1002,3.1031,3.1036,3.1083,3.1102,3.1138,3.1179,3.1195,3.124,3.1294,3.1321,3.1334,3.1362,3.1353,3.135,3.1347,3.1338,3.1442,3.1341,3.1341,3.1342,3.1342,3.1343,0,3.0773,3.081,3.083,3.0875,3.0892,3.0942,3.0981,3.0992,3.1007,3.1045,3.1068,3.1093,3.1117,3.1173,3.1202,3.1202,3.1227,3.1207,3.1208,3.1214,3.1311,3.1314,3.1187,3.1187,3.1187,3.1187,3.1187,3.1187,3.071,3.071,3.0748,3.0764,3.0801,3.0819,3.0838,3.0865,3.0897,3.0922,3.0943,3.098,3.1026,3.106,3.1084,3.11,3.1107,3.108,3.1103,3.1193,3.1207,3.1221,3.1225,3.1081,3.1081,3.1006,3.1005,3.1005]}]]